Weather History for Nassau, Bahamas

Change the Weather History Date:

Saturday, August 10, 2013

  Actual Average Record
Temperature  
Mean Temperature 86 °F -  
Max Temperature 91 °F 89 °F 93 °F (1999)
Min Temperature 80 °F 75 °F 37 °F (1999)
Cooling Degree Days 20    
Growing Degree Days 36 (Base 50)    
Moisture  
Dew Point 75 °F    
Average Humidity 73    
Maximum Humidity 84    
Minimum Humidity 53    
Precipitation  
Precipitation 0.00 in 0.26 in - ()
Sea Level Pressure  
Sea Level Pressure 30.08 in    
Wind  
Wind Speed 7 mph ()    
Max Wind Speed 12 mph    
Max Gust Speed -    
Visibility 6.6 miles    
Events      
Averages and records for this station are not official NWS values.
T = Trace of Precipitation, MM = Missing Value Source: Averaged Metar Reports

Daily Weather History Graph

Daily Weather History Graph

Search for Another Location

Airport:

Trip Planner

Search our weather history database for the weather conditions in past years. The results will help you decide how hot, cold, wet, or windy it might be!

Date:

Astronomy

Aug. 10, 2013 Rise Set
Actual Time 6:41 AM EDT 7:48 PM EDT
Civil Twilight 6:17 AM EDT 8:12 PM EDT
Nautical Twilight 5:49 AM EDT 8:40 PM EDT
Astronomical Twilight 5:19 AM EDT 9:10 PM EDT
Moon 9:56 AM EDT (8/10) 10:01 PM EDT (8/10)
Length of Visible Light 13h 54m
Length of Day
13h 06m
Waxing Crescent, 14% of the Moon is Illuminated
Aug 10
Waxing Crescent
Aug 14
First Quarter
Aug 20
Full
Aug 28
Last Quarter
Sep 5
New

Hourly Weather History & Observations

Time (EDT) Temp. Heat Index Dew Point Humidity Pressure Visibility Wind Dir Wind Speed Gust Speed Precip Events Conditions
12:00 AM 82.4 °F 89.5 °F 75.2 °F 79% 30.06 in 6.2 mi ESE 6.9 mph - N/A   Mostly Cloudy
1:00 AM 82.4 °F 89.5 °F 75.2 °F 79% 30.05 in 6.2 mi ENE 6.9 mph - N/A   Mostly Cloudy
2:00 AM 82 °F - 75 °F 73% 30.05 in 8 mi East 6.9 mph - -   Partly Cloudy
2:00 AM 82.4 °F 89.5 °F 75.2 °F 79% 30.05 in 6.2 mi East 6.9 mph - N/A   Mostly Cloudy
3:00 AM 82.4 °F 89.5 °F 75.2 °F 79% 30.04 in 6.2 mi East 5.8 mph - N/A   Scattered Clouds
4:00 AM 80.6 °F 85.4 °F 73.4 °F 79% 30.04 in 6.2 mi East 5.8 mph - N/A   Scattered Clouds
5:00 AM 81 °F - 76 °F 80% 30.06 in 8 mi East 4.6 mph - -   Scattered Clouds
5:00 AM 80.6 °F 86.2 °F 75.2 °F 84% 30.05 in 6.2 mi East 4.6 mph - N/A   Scattered Clouds
6:00 AM 80.6 °F 86.2 °F 75.2 °F 84% 30.06 in 6.2 mi East 3.5 mph - N/A   Scattered Clouds
7:00 AM 80.6 °F 85.4 °F 73.4 °F 79% 30.07 in 6.2 mi East 3.5 mph - N/A   Scattered Clouds
8:00 AM 82.4 °F 90.9 °F 77.0 °F 84% 30.08 in 6.2 mi ESE 6.9 mph - N/A   Partly Cloudy
9:00 AM 84.2 °F 92.3 °F 75.2 °F 74% 30.09 in 6.2 mi ESE 8.1 mph - N/A   Partly Cloudy
10:00 AM 86.0 °F 93.4 °F 73.4 °F 66% 30.10 in 6.2 mi ESE 11.5 mph - N/A   Scattered Clouds
11:00 AM 87.8 °F 97.6 °F 75.2 °F 66% 30.11 in 6.2 mi East 11.5 mph - N/A   Mostly Cloudy
12:00 PM 86.0 °F 93.4 °F 73.4 °F 66% 30.11 in 6.2 mi ESE 10.4 mph - N/A   Scattered Clouds
1:00 PM - - - N/A% 30.10 in 6.2 mi East 10.4 mph - N/A   Scattered Clouds
2:00 PM 90 °F - 75 °F 53% 30.11 in 9 mi ESE 9.2 mph - -   Mostly Cloudy
2:00 PM 89.6 °F 99.8 °F 75.2 °F 62% 30.10 in 6.2 mi ESE 9.2 mph - N/A   Mostly Cloudy
3:00 PM 89.6 °F 98.2 °F 73.4 °F 59% 30.09 in 6.2 mi ESE 9.2 mph - N/A   Scattered Clouds
4:00 PM 87.8 °F 97.6 °F 75.2 °F 66% 30.08 in 6.2 mi East 6.9 mph - N/A   Scattered Clouds
5:00 PM 88 °F - 77 °F 62% 30.09 in 8 mi East 9.2 mph - -   Partly Cloudy
5:00 PM 87.8 °F 99.7 °F 77.0 °F 70% 30.09 in 6.2 mi East 9.2 mph - N/A   Scattered Clouds
6:00 PM 86.0 °F 95.1 °F 75.2 °F 70% 30.07 in 6.2 mi ENE 10.4 mph - N/A   Scattered Clouds
7:00 PM 86.0 °F 95.1 °F 75.2 °F 70% 30.08 in 6.2 mi ENE 10.4 mph - N/A   Scattered Clouds
8:00 PM 85 °F - 77 °F 71% 30.09 in 8 mi ENE 10.4 mph - -   Partly Cloudy
8:00 PM 84.2 °F 94.1 °F 77.0 °F 79% 30.09 in 6.2 mi ENE 10.4 mph - N/A   Scattered Clouds
9:00 PM 84.2 °F 92.3 °F 75.2 °F 74% 30.10 in 6.2 mi East 6.9 mph - N/A   Scattered Clouds
10:00 PM 84.2 °F 92.3 °F 75.2 °F 74% 30.11 in 6.2 mi East 6.9 mph - N/A   Scattered Clouds
11:00 PM 84 °F - 77 °F 74% 30.12 in 9 mi East 8.1 mph - -   Mostly Cloudy
11:00 PM 84.2 °F 94.1 °F 77.0 °F 79% 30.12 in 6.2 mi East 8.1 mph - N/A   Mostly Cloudy